Location: Asheville, NC
(35.6000°N, 82.5500°W)
Time: 15:21:46
(UTC-04:00)

Vanguard 1 Rocket - Pass Details

Date: 13 March 2018
Orbit: 653 x 4224 km, 34.3° (Epoch: 24 June)

Event Time Altitude Azimuth Distance (km) Brightness Sun altitude
Rises 18:48:56 0° 235° (SW) 3,509 11.7 8.7°
Reaches altitude 10° 18:51:00 10° 231° (SW) 2,790 11.1 8.3°
Maximum altitude 18:57:35 57° 153° (SSE) 1,694 8.8 7.0°
Drops below altitude 10° 19:10:16 10° 80° (E) 5,184 10.6 4.4°
Sets 19:15:39 0° 77° (ENE) 6,788 11.2 3.3°
